Weather History for Du Bois, PA

Change the Weather History Date:

Wednesday, April 10, 2013

  Actual Average Record
Temperature  
Mean Temperature 66 °F 45 °F  
Max Temperature 75 °F 55 °F 75 °F (2013)
Min Temperature 57 °F 34 °F 15 °F (1985)
Degree Days  
Heating Degree Days 0 20  
Month to date heating degree days 214 222  
Since 1 July heating degree days 6002 6180  
Cooling Degree Days 1 0  
Month to date cooling degree days 1 0  
Year to date cooling degree days 1 0  
Growing Degree Days 15 (Base 50)    
Moisture  
Dew Point 55 °F    
Average Humidity 72    
Maximum Humidity 93    
Minimum Humidity 51    
Precipitation  
Precipitation 0.51 in 0.12 in 1.43 in (1990)
Month to date precipitation 0.54 1.18  
Sea Level Pressure  
Sea Level Pressure 29.88 in    
Wind  
Wind Speed 9 mph (WSW)    
Max Wind Speed 32 mph    
Max Gust Speed 44 mph    
Visibility 8 miles    
Events Rain , Thunderstorm    
T = Trace of Precipitation, MM = Missing Value Source: NWS Daily Summary

Daily Weather History Graph

Daily Weather History Graph

Search for Another Location

Airport:

Trip Planner

Search our weather history database for the weather conditions in past years. The results will help you decide how hot, cold, wet, or windy it might be!

Date:

Astronomy

Apr. 10, 2013 Rise Set
Actual Time 6:43 AM EDT 7:50 PM EDT
Civil Twilight 6:15 AM EDT 8:18 PM EDT
Nautical Twilight 5:41 AM EDT 8:52 PM EDT
Astronomical Twilight 5:06 AM EDT 9:28 PM EDT
Moon 6:38 AM EDT (4/10) 8:25 PM EDT (4/10)
Length of Visible Light 14h 03m
Length of Day
13h 06m
Waxing Crescent, 0% of the Moon is Illuminated
Apr 10
Waxing Crescent
Apr 18
First Quarter
Apr 25
Full
May 2
Last Quarter
May 9
New

Hourly Weather History & Observations

Time (EDT) Temp. Dew Point Humidity Pressure Visibility Wind Dir Wind Speed Gust Speed Precip Events Conditions
12:56 AM 68.0 °F 50.0 °F 52% 29.89 in 10.0 mi West 12.7 mph - N/A   Scattered Clouds
1:56 AM 68.0 °F 50.0 °F 52% 29.88 in 10.0 mi West 11.5 mph - N/A   Mostly Cloudy
2:56 AM 69.1 °F 50.0 °F 51% 29.88 in 10.0 mi West 11.5 mph - N/A   Overcast
3:56 AM 69.1 °F 51.1 °F 53% 29.89 in 10.0 mi West 11.5 mph - N/A   Overcast
4:56 AM 64.9 °F 50.0 °F 58% 29.91 in 10.0 mi WNW 5.8 mph - N/A   Overcast
5:56 AM 64.0 °F 50.0 °F 60% 29.90 in 10.0 mi Calm Calm - N/A   Overcast
6:56 AM 62.1 °F 50.0 °F 65% 29.91 in 10.0 mi Calm Calm - N/A   Overcast
7:56 AM 63.0 °F 50.0 °F 63% 29.91 in 10.0 mi Calm Calm - N/A   Mostly Cloudy
8:56 AM 64.9 °F 52.0 °F 63% 29.92 in 10.0 mi SW 8.1 mph - N/A   Overcast
9:56 AM 69.1 °F 54.0 °F 58% 29.90 in 10.0 mi SW 11.5 mph - N/A   Mostly Cloudy
10:33 AM 69.8 °F 55.4 °F 60% 29.94 in 10.0 mi WSW 16.1 mph 21.9 mph N/A   Overcast
10:42 AM 69.8 °F 55.4 °F 60% 29.94 in 10.0 mi WSW 15.0 mph 25.3 mph N/A   Overcast
11:08 AM 69.8 °F 55.4 °F 60% 29.93 in 10.0 mi WSW 11.5 mph - N/A   Overcast
11:56 AM 73.0 °F 57.0 °F 57% 29.88 in 10.0 mi WSW 13.8 mph - N/A   Overcast
12:05 PM 71.6 °F 55.4 °F 57% 29.92 in 10.0 mi WSW 20.7 mph 25.3 mph N/A   Overcast
12:33 PM 71.6 °F 55.4 °F 57% 29.92 in 10.0 mi SW 16.1 mph 21.9 mph 0.00 in   Overcast
12:41 PM 71.6 °F 57.2 °F 60% 29.91 in 10.0 mi SW 11.5 mph 21.9 mph 0.00 in   Overcast
12:56 PM 71.1 °F 55.9 °F 59% 29.87 in 10.0 mi SW 11.5 mph - 0.00 in   Overcast
1:56 PM 73.9 °F 55.9 °F 53% 29.85 in 10.0 mi WSW 10.4 mph - N/A   Overcast
2:29 PM 73.4 °F 55.4 °F 53% 29.88 in 10.0 mi SW 8.1 mph - N/A Thunderstorm Thunderstorm
3:00 PM 62.6 °F 53.6 °F 72% 29.91 in 4.0 mi WNW 11.5 mph - 0.00 in Rain , Thunderstorm Light Thunderstorms and Rain
3:39 PM 62.6 °F 57.2 °F 82% 29.89 in 10.0 mi SW 4.6 mph - 0.00 in   Scattered Clouds
3:56 PM 64.9 °F 59.0 °F 81% 29.86 in 10.0 mi SW 6.9 mph - 0.00 in   Overcast
4:11 PM 64.4 °F 60.8 °F 88% 29.88 in 7.0 mi WSW 13.8 mph 25.3 mph 0.00 in Rain , Thunderstorm Light Rain
4:26 PM 64.4 °F 57.2 °F 77% 29.82 in 9.0 mi SW 16.1 mph 29.9 mph 0.00 in Rain Light Rain
4:56 PM 66.0 °F 57.9 °F 75% 29.79 in 10.0 mi WNW 6.9 mph - 0.00 in   Partly Cloudy
5:48 PM 66.2 °F 57.2 °F 73% 29.84 in 10.0 mi WSW 9.2 mph - N/A Thunderstorm Overcast
5:56 PM 66.0 °F 57.0 °F 73% 29.80 in 10.0 mi SW 8.1 mph - N/A Thunderstorm Overcast
6:03 PM 66.2 °F 57.2 °F 73% 29.83 in 10.0 mi SW 6.9 mph - N/A   Overcast
6:53 PM 64.4 °F 59.0 °F 83% 29.85 in 1.8 mi West 8.1 mph 18.4 mph 0.00 in Rain , Thunderstorm Thunderstorms and Rain
6:56 PM 64.9 °F 59.0 °F 81% 29.84 in 1.2 mi West 27.6 mph 42.6 mph 0.00 in Rain , Thunderstorm Heavy Thunderstorms and Rain
7:02 PM 64.4 °F 59.0 °F 83% 29.86 in 0.8 mi NW 19.6 mph 43.7 mph 0.00 in Rain , Thunderstorm Heavy Thunderstorms and Rain
7:11 PM 64.4 °F 57.2 °F 77% 29.86 in 2.5 mi WNW 16.1 mph 26.5 mph 0.00 in Rain , Thunderstorm Light Thunderstorms and Rain
7:18 PM 62.6 °F 57.2 °F 82% 29.87 in 10.0 mi WNW 10.4 mph 19.6 mph 0.00 in Thunderstorm Thunderstorm
7:56 PM 62.1 °F 57.9 °F 86% 29.86 in 6.0 mi SSW 9.2 mph - 0.01 in Rain Light Rain
8:09 PM 62.6 °F 57.2 °F 82% 29.87 in 6.0 mi SW 10.4 mph - 0.03 in Rain , Thunderstorm Light Thunderstorms and Rain
8:53 PM 60.8 °F 55.4 °F 82% 29.91 in 7.0 mi West 10.4 mph - 0.11 in Rain Light Rain
8:56 PM 60.1 °F 55.9 °F 86% 29.88 in 8.0 mi West 10.4 mph - 0.11 in Rain Light Rain
9:44 PM 59.0 °F 55.4 °F 88% 29.94 in 4.0 mi WNW 10.4 mph - 0.09 in Rain Light Rain
9:56 PM 59.0 °F 55.0 °F 87% 29.92 in 3.0 mi West 9.2 mph - 0.15 in Rain Light Rain
10:05 PM 59.0 °F 55.4 °F 88% 29.93 in 2.5 mi NW 5.8 mph - 0.05 in Rain , Thunderstorm Rain
10:15 PM 57.2 °F 55.4 °F 94% 29.91 in 3.0 mi West 6.9 mph - 0.10 in Rain Light Rain
10:24 PM 59.0 °F 55.4 °F 88% 29.91 in 5.0 mi West 13.8 mph 17.3 mph 0.11 in Rain , Thunderstorm Light Thunderstorms and Rain
10:39 PM 59.0 °F 55.4 °F 88% 29.91 in 7.0 mi WSW 10.4 mph - 0.13 in Rain Light Rain
10:56 PM 57.9 °F 55.0 °F 90% 29.88 in 7.0 mi SW 5.8 mph - 0.16 in Rain Light Rain
11:56 PM 59.0 °F 55.0 °F 87% 29.82 in 10.0 mi South 4.6 mph - 0.05 in   Partly Cloudy